[[{"header":{"parameterUnit":"m.s-1","parameterCategory":1,"la1":30.2992,"la2":30.254,"lo1":-89.0895,"lo2":-89.0443,"dy":0.0025,"dx":0.0025,"nx":19,"ny":19,"refTime":"2026-04-04T09:00:00:Z","depth":0,"parameterNumber":2,"parameterNumberName":"U-component_of_WINDS"},"data":[0,0,0,-4.1622,-4.1624,-4.1705,-4.1705,-4.1815,-4.1816,0,0,0,0,0,0,0,0,0,0,0,-4.1603,-4.1604,-4.1622,-4.1624,-4.1705,-4.1705,-4.1815,-4.1816,0,0,0,0,0,0,0,0,0,0,0,-4.1603,-4.1604,-4.1605,-4.1625,-4.1705,-4.1705,-4.1815,-4.1751,0,0,0,0,0,0,0,0,0,0,-4.1672,-4.1659,-4.1604,-4.1605,-4.1625,-4.1704,-4.1705,-4.1748,-4.1755,-4.1782,0,-4.1807,0,-4.1814,-4.1824,-4.1824,0,0,0,-4.162,-4.1653,-4.1671,-4.1605,-4.1626,-4.1704,-4.1667,-4.1752,-4.176,-4.1791,-4.1809,-4.1813,-4.1816,-4.1825,-4.1825,-4.1995,-4.1996,0,0,-4.1616,-4.162,-4.1665,-4.1676,-4.1665,-4.1665,-4.167,-4.1757,-4.1776,-4.1809,-4.1815,-4.1817,-4.1825,-4.1826,-4.1994,-4.1996,0,0,0,-4.1606,-4.1617,-4.1632,-4.1672,-4.1686,-4.1667,-4.1673,-4.1772,-4.1776,-4.1816,-4.1819,-4.1826,-4.1828,-4.1993,-4.1995,-4.2047,0,0,0,-4.1603,-4.1611,-4.1631,-4.1634,-4.1684,-4.173,-4.1686,-4.177,-4.178,-4.1818,-4.1826,-4.1829,-4.1992,-4.1994,-4.2043,-4.2069,0,0,0,-4.1596,-4.161,-4.1624,-4.1634,-4.1669,-4.1728,-4.1738,-4.1772,-4.1782,-4.1824,-4.1829,-4.1992,-4.1994,-4.204,-4.2064,-4.2115,0,0,0,-4.159,-4.1668,-4.1625,-4.1713,-4.1668,-4.1761,-4.1737,-4.1806,-4.1849,-4.1827,-4.1992,-4.1995,-4.2038,-4.2061,-4.2111,-4.2157,-4.2177,0,0,-4.169,-4.168,-4.1732,-4.1695,-4.1797,-4.1748,-4.1857,-4.1892,-4.1892,-4.1961,-4.1965,-4.2044,-4.2064,-4.2114,-4.2291,-4.2307,0,0,0,-4.1765,-4.1802,-4.1828,-4.187,-4.19,-4.1927,-4.1946,-4.1959,-4.2018,-4.1929,-4.2077,-4.2089,-4.2118,-4.2139,-4.2153,-4.2177,-4.2005,-4.2005,-4.2005,-4.191,-4.1908,-4.1993,-4.2001,-4.2043,-4.2062,-4.2095,-4.2116,-4.21,-4.2136,-4.2155,-4.2263,-4.2289,-4.2299,-4.2324,-4.2181,-4.2181,-4.2181,-4.2182,-4.2055,-4.2107,-4.2087,-4.2163,-4.216,-4.2223,-4.2246,-4.2234,-4.2291,-4.2248,-4.2274,-4.2224,-4.2316,-4.2338,-4.2185,-4.2185,-4.2184,-4.2184,-4.2184,-4.2148,-4.2172,-4.2189,-4.2251,-4.2299,-4.2305,-4.2362,-4.2358,-4.2354,-4.238,-4.24,-4.2399,-4.2396,-4.239,-4.2391,-4.2391,-4.2391,-4.2392,-4.2392,-4.2237,-4.2254,-4.2303,-4.2344,-4.2371,-4.2407,-4.243,-4.2456,-4.2484,-4.2476,-4.2477,-4.2457,-4.2327,-4.2293,-4.2398,-4.2397,-4.2396,-4.2395,-4.2395,-4.238,-4.2348,-4.2424,-4.2451,-4.25,-4.2548,-4.2543,-4.2598,-4.262,-4.2648,-4.2625,-4.253,-4.2518,-4.2508,-4.2479,-4.2626,-4.2626,-4.2626,-4.2626,-4.2457,-4.2452,-4.2529,-4.2574,-4.2617,-4.2622,-4.2708,-4.2728,-4.2742,-4.2756,-4.2735,-4.2698,-4.2687,-4.2682,-4.2667,-4.264,-4.2825,-4.2825,-4.2826,-4.2544,-4.2544,-4.2617,-4.2633,-4.2671,-4.2704,-4.2785,-4.2837,-4.2847,-4.2834,-4.2766,-4.2757,-4.2698,-4.2679,-4.266,-4.2637,-4.2588,0,0]},{"header":{"parameterUnit":"m.s-1","parameterCategory":1,"la1":30.2992,"la2":30.254,"lo1":-89.0895,"lo2":-89.0443,"dy":0.0025,"dx":0.0025,"nx":19,"ny":19,"refTime":"2026-04-04T09:00:00:Z","depth":0,"parameterNumber":3,"parameterNumberName":"V-component_of_WINDS"},"data":[0,0,0,4.0902,4.0904,4.0965,4.0965,4.1046,4.1047,0,0,0,0,0,0,0,0,0,0,0,4.0886,4.0887,4.0902,4.0904,4.0965,4.0965,4.1046,4.1047,0,0,0,0,0,0,0,0,0,0,0,4.0886,4.0887,4.0887,4.0904,4.0965,4.0965,4.1046,4.0998,0,0,0,0,0,0,0,0,0,0,4.0938,4.0926,4.0887,4.0888,4.0904,4.0965,4.0965,4.0996,4.1001,4.102,0,4.1037,0,4.1044,4.1052,4.1053,0,0,0,4.0902,4.0921,4.0936,4.0888,4.0905,4.0965,4.0937,4.0999,4.1005,4.1027,4.1038,4.1041,4.1045,4.1053,4.1053,4.1169,4.117,0,0,4.0898,4.0898,4.0932,4.094,4.0932,4.0935,4.0939,4.1003,4.1015,4.1038,4.1043,4.1046,4.1054,4.1054,4.1169,4.117,0,0,0,4.089,4.0895,4.0909,4.0937,4.0948,4.0937,4.0941,4.1012,4.1016,4.1044,4.1047,4.1054,4.1055,4.1168,4.1169,4.1201,0,0,0,4.0888,4.0891,4.0908,4.0908,4.0947,4.0981,4.0949,4.1012,4.1019,4.1047,4.1054,4.1056,4.1167,4.1169,4.1198,4.1215,0,0,0,4.0881,4.089,4.09,4.0908,4.0934,4.098,4.0988,4.1013,4.1021,4.1053,4.1056,4.1167,4.1168,4.1196,4.1212,4.1246,0,0,0,4.0874,4.0925,4.09,4.0959,4.0934,4.1,4.0987,4.1036,4.1067,4.1055,4.1167,4.1169,4.1196,4.121,4.1244,4.1275,4.1288,0,0,4.0938,4.0932,4.0967,4.0947,4.1018,4.099,4.1065,4.1093,4.1095,4.1144,4.1147,4.1199,4.1211,4.1246,4.1363,4.1373,0,0,0,4.0987,4.1012,4.1031,4.1062,4.1086,4.1109,4.1126,4.1137,4.1179,4.1121,4.1221,4.1229,4.1249,4.1264,4.1273,4.129,4.1176,4.1176,4.1176,4.1075,4.1079,4.1137,4.1149,4.1179,4.1198,4.1223,4.124,4.1232,4.1257,4.1271,4.1341,4.1359,4.1365,4.1384,4.1288,4.1288,4.1288,4.1288,4.1169,4.1205,4.1198,4.1252,4.1256,4.13,4.1322,4.1316,4.1358,4.133,4.1348,4.1317,4.1377,4.1393,4.1291,4.129,4.129,4.129,4.1289,4.1226,4.1244,4.1259,4.1306,4.1343,4.1353,4.1395,4.1396,4.1397,4.1415,4.1431,4.143,4.143,4.1423,4.1423,4.1423,4.1424,4.1424,4.1424,4.1279,4.1295,4.1331,4.1365,4.1387,4.1415,4.1438,4.1459,4.1482,4.148,4.148,4.147,4.1383,4.136,4.1428,4.1427,4.1427,4.1426,4.1426,4.1372,4.1352,4.1408,4.143,4.1471,4.1508,4.1511,4.1554,4.1572,4.1593,4.1581,4.1516,4.151,4.1503,4.1485,4.158,4.158,4.158,4.158,4.142,4.1418,4.1478,4.1513,4.1549,4.1558,4.1622,4.1641,4.1657,4.1668,4.1655,4.1631,4.1624,4.1622,4.1612,4.1595,4.1717,4.1717,4.1717,4.1477,4.148,4.1534,4.1552,4.1585,4.1614,4.1674,4.1715,4.1729,4.1723,4.1677,4.1672,4.1633,4.162,4.161,4.1595,4.1564,0,0]}]]